Time,TemperatureF,DewpointF,PressureIn,WindDirection,WindDirectionDegrees,WindSpeedMPH,WindSpeedGustMPH,Humidity,HourlyPrecipIn,Conditions,Clouds,dailyrainin,SoftwareType,DateUTC
2013-01-02 00:00:00,18.5,13.1,30.10,WSW,252,0.0,2.0,79,0.00,,---,0.00,VWS V14.01,2013-01-02 05:00:00,
2013-01-02 00:05:00,18.5,12.8,30.10,WNW,300,2.0,5.0,78,0.00,,---,0.00,VWS V14.01,2013-01-02 05:05:00,
2013-01-02 00:10:00,18.4,12.7,30.10,WSW,246,0.0,6.0,78,0.00,,---,0.00,VWS V14.01,2013-01-02 05:10:00,
2013-01-02 00:15:00,18.4,12.7,30.10,NNW,341,2.0,6.0,78,0.00,,---,0.00,VWS V14.01,2013-01-02 05:15:00,
2013-01-02 00:20:00,18.5,12.8,30.10,SSW,210,2.0,7.0,78,0.00,,---,0.00,VWS V14.01,2013-01-02 05:20:00,
2013-01-02 00:25:00,18.5,12.8,30.09,WNW,295,2.0,8.0,78,0.00,,---,0.00,VWS V14.01,2013-01-02 05:25:00,
2013-01-02 00:30:00,18.5,12.8,30.09,WNW,284,8.0,8.0,78,0.00,,---,0.00,VWS V14.01,2013-01-02 05:30:00,
2013-01-02 00:35:00,18.6,12.9,30.09,WSW,253,1.0,4.0,78,0.00,,---,0.00,VWS V14.01,2013-01-02 05:35:00,
2013-01-02 00:40:00,18.6,12.9,30.10,South,191,2.0,13.0,78,0.00,,---,0.00,VWS V14.01,2013-01-02 05:40:00,
2013-01-02 00:45:00,18.7,13.0,30.10,West,271,1.0,7.0,78,0.00,,---,0.00,VWS V14.01,2013-01-02 05:45:00,
2013-01-02 00:50:00,18.7,13.0,30.09,WSW,256,4.0,4.0,78,0.00,,---,0.00,VWS V14.01,2013-01-02 05:50:00,
2013-01-02 00:55:00,18.7,13.0,30.09,SW,218,2.0,6.0,78,0.00,,---,0.00,VWS V14.01,2013-01-02 05:55:00,
2013-01-02 01:00:00,18.8,13.1,30.09,WNW,302,2.0,5.0,78,0.00,,---,0.00,VWS V14.01,2013-01-02 06:00:00,
2013-01-02 01:05:00,18.7,13.0,30.09,WNW,293,2.0,7.0,78,0.00,,---,0.00,VWS V14.01,2013-01-02 06:05:00,
2013-01-02 01:10:00,18.8,13.1,30.09,NW,315,2.0,4.0,78,0.00,,---,0.00,VWS V14.01,2013-01-02 06:10:00,
2013-01-02 01:15:00,18.8,13.1,30.09,West,275,0.0,1.0,78,0.00,,---,0.00,VWS V14.01,2013-01-02 06:15:00,
2013-01-02 01:20:00,18.7,13.3,30.09,WSW,245,1.0,2.0,79,0.00,,---,0.00,VWS V14.01,2013-01-02 06:20:00,
2013-01-02 01:25:00,18.6,12.9,30.09,SW,225,2.0,5.0,78,0.00,,---,0.00,VWS V14.01,2013-01-02 06:25:00,
2013-01-02 01:30:00,18.6,12.9,30.09,SE,131,0.0,5.0,78,0.00,,---,0.00,VWS V14.01,2013-01-02 06:30:00,
2013-01-02 01:35:00,18.6,12.9,30.09,West,269,2.0,5.0,78,0.00,,---,0.00,VWS V14.01,2013-01-02 06:35:00,
2013-01-02 01:40:00,18.5,13.1,30.09,WSW,240,1.0,5.0,79,0.00,,---,0.00,VWS V14.01,2013-01-02 06:40:00,
2013-01-02 01:45:00,18.5,13.1,30.09,SW,214,1.0,5.0,79,0.00,,---,0.00,VWS V14.01,2013-01-02 06:45:00,
2013-01-02 01:50:00,18.5,13.1,30.09,SW,228,0.0,5.0,79,0.00,,---,0.00,VWS V14.01,2013-01-02 06:50:00,
2013-01-02 01:55:00,18.4,13.0,30.09,WSW,255,3.0,7.0,79,0.00,,---,0.00,VWS V14.01,2013-01-02 06:55:00,
2013-01-02 02:00:00,18.4,13.0,30.09,NW,312,2.0,5.0,79,0.00,,---,0.00,VWS V14.01,2013-01-02 07:00:00,
2013-01-02 02:05:00,18.3,12.9,30.09,WSW,253,1.0,5.0,79,0.00,,---,0.00,VWS V14.01,2013-01-02 07:05:00,
2013-01-02 02:10:00,18.2,12.8,30.09,SW,224,1.0,3.0,79,0.00,,---,0.00,VWS V14.01,2013-01-02 07:10:00,
2013-01-02 02:15:00,18.1,13.0,30.09,WSW,240,3.0,3.0,80,0.00,,---,0.00,VWS V14.01,2013-01-02 07:15:00,
2013-01-02 02:20:00,18.1,13.0,30.09,WSW,239,1.0,3.0,80,0.00,,---,0.00,VWS V14.01,2013-01-02 07:20:00,
2013-01-02 02:25:00,18.1,13.0,30.09,SW,225,1.0,6.0,80,0.00,,---,0.00,VWS V14.01,2013-01-02 07:25:00,
2013-01-02 02:30:00,17.9,12.8,30.09,WNW,297,0.0,2.0,80,0.00,,---,0.00,VWS V14.01,2013-01-02 07:30:00,
2013-01-02 02:35:00,17.8,12.7,30.09,WSW,257,0.0,2.0,80,0.00,,---,0.00,VWS V14.01,2013-01-02 07:35:00,
2013-01-02 02:40:00,17.6,12.8,30.09,West,270,0.0,2.0,81,0.00,,---,0.00,VWS V14.01,2013-01-02 07:40:00,
2013-01-02 02:45:00,17.5,12.7,30.10,West,275,0.0,3.0,81,0.00,,---,0.00,VWS V14.01,2013-01-02 07:45:00,
2013-01-02 02:50:00,17.6,12.8,30.10,WSW,258,2.0,5.0,81,0.00,,---,0.00,VWS V14.01,2013-01-02 07:50:00,
2013-01-02 02:55:00,17.7,12.9,30.10,WSW,240,0.0,3.0,81,0.00,,---,0.00,VWS V14.01,2013-01-02 07:55:00,
2013-01-02 03:00:00,17.7,12.9,30.10,WNW,282,2.0,3.0,81,0.00,,---,0.00,VWS V14.01,2013-01-02 08:00:00,
2013-01-02 03:05:00,17.9,13.1,30.10,NW,310,5.0,5.0,81,0.00,,---,0.00,VWS V14.01,2013-01-02 08:05:00,
2013-01-02 03:10:00,18.1,13.0,30.11,SW,222,1.0,4.0,80,0.00,,---,0.00,VWS V14.01,2013-01-02 08:10:00,
2013-01-02 03:15:00,18.2,13.1,30.11,WSW,246,0.0,3.0,80,0.00,,---,0.00,VWS V14.01,2013-01-02 08:15:00,
2013-01-02 03:20:00,18.4,13.3,30.11,West,276,0.0,8.0,80,0.00,,---,0.00,VWS V14.01,2013-01-02 08:20:00,
2013-01-02 03:25:00,18.5,13.4,30.11,WSW,246,1.0,5.0,80,0.00,,---,0.00,VWS V14.01,2013-01-02 08:25:00,
2013-01-02 03:30:00,18.7,13.6,30.11,West,259,4.0,4.0,80,0.00,,---,0.00,VWS V14.01,2013-01-02 08:30:00,
2013-01-02 03:35:00,18.8,13.7,30.11,SW,232,0.0,2.0,80,0.00,,---,0.00,VWS V14.01,2013-01-02 08:35:00,
2013-01-02 03:40:00,19.0,13.9,30.11,West,270,1.0,4.0,80,0.00,,---,0.00,VWS V14.01,2013-01-02 08:40:00,
2013-01-02 03:45:00,19.1,14.0,30.11,SW,225,2.0,4.0,80,0.00,,---,0.00,VWS V14.01,2013-01-02 08:45:00,
2013-01-02 03:50:00,19.2,14.1,30.11,SW,236,2.0,3.0,80,0.00,,---,0.00,VWS V14.01,2013-01-02 08:50:00,
2013-01-02 03:55:00,19.2,14.1,30.11,SW,227,0.0,3.0,80,0.00,,---,0.00,VWS V14.01,2013-01-02 08:55:00,
2013-01-02 04:00:00,19.3,14.1,30.12,WSW,238,1.0,5.0,80,0.00,,---,0.00,VWS V14.01,2013-01-02 09:00:00,
2013-01-02 04:05:00,19.4,14.0,30.11,SSW,204,1.0,4.0,79,0.00,,---,0.00,VWS V14.01,2013-01-02 09:05:00,
2013-01-02 04:10:00,19.5,14.1,30.11,SW,234,0.0,3.0,79,0.00,,---,0.00,VWS V14.01,2013-01-02 09:10:00,
2013-01-02 04:15:00,19.5,14.4,30.11,WNW,294,3.0,3.0,80,0.00,,---,0.00,VWS V14.01,2013-01-02 09:15:00,
2013-01-02 04:20:00,19.6,14.4,30.11,West,266,1.0,1.0,80,0.00,,---,0.00,VWS V14.01,2013-01-02 09:20:00,
2013-01-02 04:25:00,19.6,14.4,30.11,SW,221,2.0,3.0,80,0.00,,---,0.00,VWS V14.01,2013-01-02 09:25:00,
2013-01-02 04:30:00,19.7,14.5,30.11,SW,225,1.0,3.0,80,0.00,,---,0.00,VWS V14.01,2013-01-02 09:30:00,
2013-01-02 04:35:00,19.7,14.5,30.11,SW,214,0.0,2.0,80,0.00,,---,0.00,VWS V14.01,2013-01-02 09:35:00,
2013-01-02 04:40:00,19.7,14.5,30.11,SW,219,0.0,1.0,80,0.00,,---,0.00,VWS V14.01,2013-01-02 09:40:00,
2013-01-02 04:45:00,19.8,14.6,30.11,SW,222,2.0,4.0,80,0.00,,---,0.00,VWS V14.01,2013-01-02 09:45:00,
2013-01-02 04:50:00,19.9,15.0,30.10,SW,236,0.0,1.0,81,0.00,,---,0.00,VWS V14.01,2013-01-02 09:50:00,
2013-01-02 04:55:00,19.9,14.7,30.10,West,266,1.0,2.0,80,0.00,,---,0.00,VWS V14.01,2013-01-02 09:55:00,
2013-01-02 05:00:00,19.9,15.0,30.10,SW,228,0.0,0.0,81,0.00,,---,0.00,VWS V14.01,2013-01-02 10:00:00,
2013-01-02 05:05:00,19.9,15.0,30.10,WSW,240,0.0,1.0,81,0.00,,---,0.00,VWS V14.01,2013-01-02 10:05:00,
2013-01-02 05:10:00,20.0,15.1,30.10,SW,233,0.0,3.0,81,0.00,,---,0.00,VWS V14.01,2013-01-02 10:10:00,
2013-01-02 05:15:00,20.1,15.2,30.10,SW,215,1.0,3.0,81,0.00,,---,0.00,VWS V14.01,2013-01-02 10:15:00,
2013-01-02 05:20:00,20.1,15.2,30.10,SW,235,0.0,3.0,81,0.00,,---,0.00,VWS V14.01,2013-01-02 10:20:00,
2013-01-02 05:25:00,20.2,15.3,30.10,SW,219,2.0,4.0,81,0.00,,---,0.00,VWS V14.01,2013-01-02 10:25:00,
2013-01-02 05:30:00,20.3,15.4,30.10,WSW,252,1.0,2.0,81,0.00,,---,0.00,VWS V14.01,2013-01-02 10:30:00,
2013-01-02 05:35:00,20.4,15.5,30.10,SW,228,1.0,3.0,81,0.00,,---,0.00,VWS V14.01,2013-01-02 10:35:00,
2013-01-02 05:40:00,20.5,15.6,30.10,SW,217,0.0,3.0,81,0.00,,---,0.00,VWS V14.01,2013-01-02 10:40:00,
2013-01-02 05:45:00,20.6,15.7,30.10,SSW,194,0.0,2.0,81,0.00,,---,0.00,VWS V14.01,2013-01-02 10:45:00,
2013-01-02 05:50:00,20.6,16.0,30.10,WSW,248,1.0,5.0,82,0.00,,---,0.00,VWS V14.01,2013-01-02 10:50:00,
2013-01-02 05:55:00,20.7,16.1,30.11,WSW,243,1.0,4.0,82,0.00,,---,0.00,VWS V14.01,2013-01-02 10:55:00,
2013-01-02 06:00:00,20.8,16.2,30.10,WNW,284,0.0,3.0,82,0.00,,---,0.00,VWS V14.01,2013-01-02 11:00:00,
2013-01-02 06:05:00,20.8,16.2,30.10,SW,231,1.0,5.0,82,0.00,,---,0.00,VWS V14.01,2013-01-02 11:05:00,
2013-01-02 06:10:00,20.9,16.3,30.10,WSW,245,0.0,2.0,82,0.00,,---,0.00,VWS V14.01,2013-01-02 11:10:00,
2013-01-02 06:15:00,20.9,16.3,30.11,SW,224,1.0,4.0,82,0.00,,---,0.00,VWS V14.01,2013-01-02 11:15:00,
2013-01-02 06:20:00,21.0,16.4,30.11,SW,227,1.0,3.0,82,0.00,,---,0.00,VWS V14.01,2013-01-02 11:20:00,
2013-01-02 06:25:00,21.0,16.4,30.11,SW,231,3.0,4.0,82,0.00,,---,0.00,VWS V14.01,2013-01-02 11:25:00,
2013-01-02 06:30:00,21.1,16.5,30.11,SW,224,2.0,5.0,82,0.00,,---,0.00,VWS V14.01,2013-01-02 11:30:00,
2013-01-02 06:35:00,21.2,16.6,30.11,West,260,6.0,6.0,82,0.00,,---,0.00,VWS V14.01,2013-01-02 11:35:00,
2013-01-02 06:40:00,21.3,16.7,30.11,SSW,200,3.0,4.0,82,0.00,,---,0.00,VWS V14.01,2013-01-02 11:40:00,
2013-01-02 06:45:00,21.3,16.7,30.11,SW,231,1.0,4.0,82,0.00,,---,0.00,VWS V14.01,2013-01-02 11:45:00,
2013-01-02 06:50:00,21.3,16.7,30.11,SW,229,1.0,5.0,82,0.00,,---,0.00,VWS V14.01,2013-01-02 11:50:00,
2013-01-02 06:55:00,21.4,17.0,30.11,SSW,208,2.0,4.0,83,0.00,,---,0.00,VWS V14.01,2013-01-02 11:55:00,
2013-01-02 07:00:00,21.4,17.0,30.12,SW,224,1.0,3.0,83,0.00,,---,0.00,VWS V14.01,2013-01-02 12:00:00,
2013-01-02 07:05:00,21.5,17.1,30.11,SW,214,2.0,3.0,83,0.00,,---,0.00,VWS V14.01,2013-01-02 12:05:00,
2013-01-02 07:10:00,21.6,17.2,30.11,WSW,250,3.0,4.0,83,0.00,,---,0.00,VWS V14.01,2013-01-02 12:10:00,
2013-01-02 07:15:00,21.7,17.3,30.12,SW,226,2.0,6.0,83,0.00,,---,0.00,VWS V14.01,2013-01-02 12:15:00,
2013-01-02 07:20:00,21.7,17.3,30.11,WSW,239,1.0,2.0,83,0.00,,---,0.00,VWS V14.01,2013-01-02 12:20:00,
2013-01-02 07:25:00,21.8,17.4,30.11,SSW,208,2.0,3.0,83,0.00,,---,0.00,VWS V14.01,2013-01-02 12:25:00,
2013-01-02 07:30:00,21.8,17.7,30.12,WSW,245,2.0,3.0,84,0.00,,---,0.00,VWS V14.01,2013-01-02 12:30:00,
2013-01-02 07:35:00,21.9,17.8,30.12,SW,225,0.0,3.0,84,0.00,,---,0.00,VWS V14.01,2013-01-02 12:35:00,
2013-01-02 07:40:00,21.9,17.8,30.12,WNW,293,1.0,2.0,84,0.00,,---,0.00,VWS V14.01,2013-01-02 12:40:00,
2013-01-02 07:45:00,21.9,17.8,30.12,SW,236,0.0,1.0,84,0.00,,---,0.00,VWS V14.01,2013-01-02 12:45:00,
2013-01-02 07:50:00,21.9,17.8,30.12,West,264,0.0,2.0,84,0.00,,---,0.00,VWS V14.01,2013-01-02 12:50:00,
2013-01-02 07:55:00,22.0,17.9,30.12,SW,221,0.0,3.0,84,0.00,,---,0.00,VWS V14.01,2013-01-02 12:55:00,
2013-01-02 08:00:00,22.0,17.9,30.12,WSW,238,1.0,3.0,84,0.00,,---,0.00,VWS V14.01,2013-01-02 13:00:00,
2013-01-02 08:05:00,22.1,18.0,30.12,WNW,302,2.0,5.0,84,0.00,,---,0.00,VWS V14.01,2013-01-02 13:05:00,
2013-01-02 08:10:00,22.2,18.1,30.12,WSW,243,0.0,5.0,84,0.00,,---,0.00,VWS V14.01,2013-01-02 13:10:00,
2013-01-02 08:15:00,22.3,17.9,30.13,West,266,3.0,4.0,83,0.00,,---,0.00,VWS V14.01,2013-01-02 13:15:00,
2013-01-02 08:20:00,22.4,18.0,30.13,West,262,3.0,3.0,83,0.00,,---,0.00,VWS V14.01,2013-01-02 13:20:00,
2013-01-02 08:25:00,22.4,18.0,30.13,SW,219,0.0,3.0,83,0.00,,---,0.00,VWS V14.01,2013-01-02 13:25:00,
2013-01-02 08:30:00,22.5,18.1,30.13,WSW,240,0.0,2.0,83,0.00,,---,0.00,VWS V14.01,2013-01-02 13:30:00,
2013-01-02 08:35:00,22.5,18.1,30.14,South,183,3.0,5.0,83,0.00,,---,0.00,VWS V14.01,2013-01-02 13:35:00,
2013-01-02 08:40:00,22.6,18.2,30.13,WSW,238,2.0,5.0,83,0.00,,---,0.00,VWS V14.01,2013-01-02 13:40:00,
2013-01-02 08:45:00,22.7,18.3,30.13,SW,228,1.0,2.0,83,0.00,,---,0.00,VWS V14.01,2013-01-02 13:45:00,
2013-01-02 08:50:00,22.7,18.3,30.13,NW,321,5.0,7.0,83,0.00,,---,0.00,VWS V14.01,2013-01-02 13:50:00,
2013-01-02 08:55:00,22.8,18.4,30.13,SE,138,1.0,3.0,83,0.00,,---,0.00,VWS V14.01,2013-01-02 13:55:00,
2013-01-02 09:00:00,22.9,18.2,30.13,WSW,253,3.0,4.0,82,0.00,,---,0.00,VWS V14.01,2013-01-02 14:00:00,
2013-01-02 09:05:00,23.0,18.6,30.14,WSW,250,1.0,3.0,83,0.00,,---,0.00,VWS V14.01,2013-01-02 14:05:00,
2013-01-02 09:10:00,23.0,18.6,30.13,SSW,208,1.0,7.0,83,0.00,,---,0.00,VWS V14.01,2013-01-02 14:10:00,
2013-01-02 09:15:00,23.0,18.6,30.13,WSW,253,5.0,5.0,83,0.00,,---,0.00,VWS V14.01,2013-01-02 14:15:00,
2013-01-02 09:20:00,23.1,19.0,30.14,SW,232,1.0,3.0,84,0.00,,---,0.00,VWS V14.01,2013-01-02 14:20:00,
2013-01-02 09:25:00,23.1,19.0,30.14,SW,222,0.0,2.0,84,0.00,,---,0.00,VWS V14.01,2013-01-02 14:25:00,
2013-01-02 09:30:00,23.2,19.1,30.14,NW,319,3.0,6.0,84,0.00,,---,0.00,VWS V14.01,2013-01-02 14:30:00,
2013-01-02 09:35:00,23.2,19.1,30.15,SW,222,0.0,2.0,84,0.00,,---,0.00,VWS V14.01,2013-01-02 14:35:00,
2013-01-02 09:40:00,23.2,19.4,30.15,SW,229,0.0,4.0,85,0.00,,---,0.00,VWS V14.01,2013-01-02 14:40:00,
2013-01-02 09:45:00,23.3,19.5,30.15,West,274,3.0,4.0,85,0.00,,---,0.00,VWS V14.01,2013-01-02 14:45:00,
2013-01-02 09:50:00,23.3,19.5,30.15,SW,225,2.0,4.0,85,0.00,,---,0.00,VWS V14.01,2013-01-02 14:50:00,
2013-01-02 09:55:00,23.3,19.7,30.16,West,262,0.0,2.0,86,0.00,,---,0.00,VWS V14.01,2013-01-02 14:55:00,
2013-01-02 10:00:00,23.4,19.8,30.16,SW,231,3.0,3.0,86,0.00,,---,0.00,VWS V14.01,2013-01-02 15:00:00,
2013-01-02 10:05:00,23.4,19.8,30.16,SW,222,2.0,3.0,86,0.00,,---,0.00,VWS V14.01,2013-01-02 15:05:00,
2013-01-02 10:10:00,23.4,20.1,30.16,SW,225,2.0,2.0,87,0.00,,---,0.00,VWS V14.01,2013-01-02 15:10:00,
2013-01-02 10:15:00,23.4,20.1,30.16,SW,222,1.0,3.0,87,0.00,,---,0.00,VWS V14.01,2013-01-02 15:15:00,
2013-01-02 10:19:00,23.5,19.9,30.16,SW,215,0.0,1.0,86,0.00,,---,0.00,VWS V14.01,2013-01-02 15:19:00,
2013-01-02 10:20:00,23.5,20.2,30.17,SW,214,1.0,1.0,87,0.00,,---,0.00,VWS V14.01,2013-01-02 15:20:00,
2013-01-02 10:24:00,23.6,20.3,30.17,SW,221,0.0,3.0,87,0.00,,---,0.00,VWS V14.01,2013-01-02 15:24:00,
2013-01-02 10:25:00,23.6,20.0,30.17,WSW,250,0.0,3.0,86,0.00,,---,0.00,VWS V14.01,2013-01-02 15:25:00,
2013-01-02 10:29:00,23.6,20.0,30.17,WSW,238,0.0,3.0,86,0.00,,---,0.00,VWS V14.01,2013-01-02 15:29:00,
2013-01-02 10:30:00,23.6,20.3,30.17,WSW,239,0.0,3.0,87,0.00,,---,0.00,VWS V14.01,2013-01-02 15:30:00,
2013-01-02 10:34:00,23.7,20.1,30.17,WSW,253,0.0,2.0,86,0.00,,---,0.00,VWS V14.01,2013-01-02 15:34:00,
2013-01-02 10:35:00,23.7,20.1,30.17,WNW,287,0.0,3.0,86,0.00,,---,0.00,VWS V14.01,2013-01-02 15:35:00,
2013-01-02 10:39:00,23.8,20.2,30.17,SW,228,0.0,2.0,86,0.00,,---,0.00,VWS V14.01,2013-01-02 15:39:00,
2013-01-02 10:40:00,23.8,20.2,30.17,WSW,253,2.0,3.0,86,0.00,,---,0.00,VWS V14.01,2013-01-02 15:40:00,
2013-01-02 10:44:00,23.8,20.2,30.17,SW,228,1.0,4.0,86,0.00,,---,0.00,VWS V14.01,2013-01-02 15:44:00,
2013-01-02 10:45:00,23.9,20.3,30.17,WSW,238,0.0,4.0,86,0.00,,---,0.00,VWS V14.01,2013-01-02 15:45:00,
2013-01-02 10:49:00,23.9,20.3,30.17,SSW,202,1.0,2.0,86,0.00,,---,0.00,VWS V14.01,2013-01-02 15:49:00,
2013-01-02 10:50:00,23.9,20.3,30.17,WSW,255,0.0,3.0,86,0.00,,---,0.00,VWS V14.01,2013-01-02 15:50:00,
2013-01-02 10:54:00,24.0,20.4,30.17,SW,229,2.0,4.0,86,0.00,,---,0.00,VWS V14.01,2013-01-02 15:54:00,
2013-01-02 10:55:00,24.0,20.4,30.17,SW,217,0.0,4.0,86,0.00,,---,0.00,VWS V14.01,2013-01-02 15:55:00,
2013-01-02 10:59:00,24.0,20.4,30.17,SW,229,0.0,3.0,86,0.00,,---,0.00,VWS V14.01,2013-01-02 15:59:00,
2013-01-02 11:00:00,24.1,20.5,30.17,WSW,252,1.0,3.0,86,0.00,,---,0.00,VWS V14.01,2013-01-02 16:00:00,
2013-01-02 11:04:00,24.1,20.5,30.17,West,269,1.0,2.0,86,0.00,,---,0.00,VWS V14.01,2013-01-02 16:04:00,
2013-01-02 11:05:00,24.1,20.5,30.17,WSW,242,1.0,3.0,86,0.00,,---,0.00,VWS V14.01,2013-01-02 16:05:00,
2013-01-02 11:09:00,24.2,20.6,30.17,SW,236,0.0,2.0,86,0.00,,---,0.00,VWS V14.01,2013-01-02 16:09:00,
2013-01-02 11:10:00,24.2,20.6,30.17,SW,224,2.0,2.0,86,0.00,,---,0.00,VWS V14.01,2013-01-02 16:10:00,
2013-01-02 11:14:00,24.3,20.7,30.17,SW,224,1.0,4.0,86,0.00,,---,0.00,VWS V14.01,2013-01-02 16:14:00,
2013-01-02 11:15:00,24.3,20.7,30.17,NW,306,1.0,4.0,86,0.00,,---,0.00,VWS V14.01,2013-01-02 16:15:00,
2013-01-02 11:19:00,24.3,20.7,30.17,WSW,240,1.0,1.0,86,0.00,,---,0.00,VWS V14.01,2013-01-02 16:19:00,
2013-01-02 11:20:00,24.4,20.8,30.17,SW,215,0.0,2.0,86,0.00,,---,0.00,VWS V14.01,2013-01-02 16:20:00,
2013-01-02 11:24:00,24.5,20.9,30.17,SW,229,0.0,3.0,86,0.00,,---,0.00,VWS V14.01,2013-01-02 16:24:00,
2013-01-02 11:25:00,24.5,20.9,30.17,SSW,211,1.0,3.0,86,0.00,,---,0.00,VWS V14.01,2013-01-02 16:25:00,
2013-01-02 11:29:00,24.5,20.9,30.17,SW,234,1.0,3.0,86,0.00,,---,0.00,VWS V14.01,2013-01-02 16:29:00,
2013-01-02 11:30:00,24.5,20.9,30.17,WSW,256,0.0,3.0,86,0.00,,---,0.00,VWS V14.01,2013-01-02 16:30:00,
2013-01-02 11:34:00,24.5,20.9,30.17,WNW,290,1.0,1.0,86,0.00,,---,0.00,VWS V14.01,2013-01-02 16:34:00,
2013-01-02 11:35:00,24.5,20.9,30.17,SW,224,0.0,1.0,86,0.00,,---,0.00,VWS V14.01,2013-01-02 16:35:00,
2013-01-02 11:39:00,24.5,20.9,30.17,SW,236,0.0,2.0,86,0.00,,---,0.00,VWS V14.01,2013-01-02 16:39:00,
2013-01-02 11:40:00,24.5,21.2,30.17,SW,222,0.0,4.0,87,0.00,,---,0.00,VWS V14.01,2013-01-02 16:40:00,
2013-01-02 11:44:00,24.5,21.2,30.17,WSW,238,1.0,2.0,87,0.00,,---,0.00,VWS V14.01,2013-01-02 16:44:00,
2013-01-02 11:45:00,24.5,21.2,30.17,WNW,283,0.0,2.0,87,0.00,,---,0.00,VWS V14.01,2013-01-02 16:45:00,
2013-01-02 11:49:00,24.5,21.2,30.17,SW,233,0.0,1.0,87,0.00,,---,0.00,VWS V14.01,2013-01-02 16:49:00,
2013-01-02 11:50:00,24.6,21.3,30.17,SW,233,0.0,1.0,87,0.00,,---,0.00,VWS V14.01,2013-01-02 16:50:00,
2013-01-02 11:54:00,24.6,21.3,30.17,SSW,212,0.0,1.0,87,0.00,,---,0.00,VWS V14.01,2013-01-02 16:54:00,
2013-01-02 11:55:00,24.6,21.3,30.17,WSW,239,1.0,2.0,87,0.00,,---,0.00,VWS V14.01,2013-01-02 16:55:00,
2013-01-02 11:59:00,24.6,21.3,30.17,SW,215,0.0,1.0,87,0.00,,---,0.00,VWS V14.01,2013-01-02 16:59:00,
2013-01-02 12:00:00,24.5,21.2,30.16,WNW,292,0.0,2.0,87,0.00,,---,0.00,VWS V14.01,2013-01-02 17:00:00,
2013-01-02 12:04:00,24.5,21.2,30.16,WNW,293,0.0,1.0,87,0.00,,---,0.00,VWS V14.01,2013-01-02 17:04:00,
2013-01-02 12:05:00,24.5,21.5,30.16,WNW,293,0.0,1.0,88,0.00,,---,0.00,VWS V14.01,2013-01-02 17:05:00,
2013-01-02 12:09:00,24.6,21.3,30.16,WNW,293,0.0,0.0,87,0.00,,---,0.00,VWS V14.01,2013-01-02 17:09:00,
2013-01-02 12:10:00,24.6,21.3,30.16,West,274,0.0,0.0,87,0.00,,---,0.00,VWS V14.01,2013-01-02 17:10:00,
2013-01-02 12:14:00,24.6,21.3,30.16,West,274,0.0,1.0,87,0.00,,---,0.00,VWS V14.01,2013-01-02 17:14:00,
2013-01-02 12:15:00,24.6,21.0,30.16,West,274,0.0,1.0,86,0.00,,---,0.00,VWS V14.01,2013-01-02 17:15:00,
2013-01-02 12:19:00,24.6,21.0,30.15,WSW,248,2.0,2.0,86,0.00,,---,0.00,VWS V14.01,2013-01-02 17:19:00,
2013-01-02 12:20:00,24.5,20.9,30.15,WSW,245,0.0,2.0,86,0.00,,---,0.00,VWS V14.01,2013-01-02 17:20:00,
2013-01-02 12:24:00,24.6,21.0,30.15,WSW,245,1.0,1.0,86,0.00,,---,0.00,VWS V14.01,2013-01-02 17:24:00,
2013-01-02 12:25:00,24.6,21.0,30.15,WSW,245,0.0,1.0,86,0.00,,---,0.00,VWS V14.01,2013-01-02 17:25:00,
2013-01-02 12:29:00,24.6,21.0,30.16,NW,323,1.0,2.0,86,0.00,,---,0.00,VWS V14.01,2013-01-02 17:29:00,
2013-01-02 12:30:00,24.5,20.9,30.16,NW,321,0.0,2.0,86,0.00,,---,0.00,VWS V14.01,2013-01-02 17:30:00,
2013-01-02 12:34:00,24.6,21.0,30.16,SW,224,0.0,1.0,86,0.00,,---,0.00,VWS V14.01,2013-01-02 17:34:00,
2013-01-02 12:35:00,24.6,21.3,30.15,SW,224,0.0,1.0,87,0.00,,---,0.00,VWS V14.01,2013-01-02 17:35:00,
2013-01-02 12:39:00,24.7,21.4,30.15,SW,224,0.0,0.0,87,0.00,,---,0.00,VWS V14.01,2013-01-02 17:39:00,
2013-01-02 12:40:00,24.8,21.2,30.15,SW,224,0.0,0.0,86,0.00,,---,0.00,VWS V14.01,2013-01-02 17:40:00,
2013-01-02 12:44:00,24.8,21.2,30.15,SW,224,0.0,0.0,86,0.00,,---,0.00,VWS V14.01,2013-01-02 17:44:00,
2013-01-02 12:45:00,25.0,21.4,30.15,SW,224,0.0,0.0,86,0.00,,---,0.00,VWS V14.01,2013-01-02 17:45:00,
2013-01-02 12:49:00,25.0,21.1,30.15,SW,224,0.0,1.0,85,0.00,,---,0.00,VWS V14.01,2013-01-02 17:49:00,
2013-01-02 12:50:00,24.9,21.3,30.15,SW,224,0.0,1.0,86,0.00,,---,0.00,VWS V14.01,2013-01-02 17:50:00,
2013-01-02 12:54:00,24.9,21.0,30.15,SW,224,0.0,1.0,85,0.00,,---,0.00,VWS V14.01,2013-01-02 17:54:00,
2013-01-02 12:55:00,24.9,21.0,30.15,WSW,249,0.0,2.0,85,0.00,,---,0.00,VWS V14.01,2013-01-02 17:55:00,
2013-01-02 12:59:00,24.9,21.0,30.15,WSW,249,0.0,0.0,85,0.00,,---,0.00,VWS V14.01,2013-01-02 17:59:00,
2013-01-02 13:00:00,24.9,21.0,30.15,WSW,249,0.0,0.0,85,0.00,,---,0.00,VWS V14.01,2013-01-02 18:00:00,
2013-01-02 13:04:00,24.9,21.0,30.15,WSW,239,0.0,0.0,85,0.00,,---,0.00,VWS V14.01,2013-01-02 18:04:00,
2013-01-02 13:05:00,24.9,21.0,30.15,SW,234,0.0,2.0,85,0.00,,---,0.00,VWS V14.01,2013-01-02 18:05:00,
2013-01-02 13:09:00,24.9,21.0,30.15,SW,219,0.0,1.0,85,0.00,,---,0.00,VWS V14.01,2013-01-02 18:09:00,
2013-01-02 13:10:00,24.9,21.0,30.15,SSW,208,0.0,1.0,85,0.00,,---,0.00,VWS V14.01,2013-01-02 18:10:00,
2013-01-02 13:14:00,24.9,21.0,30.15,WSW,238,0.0,1.0,85,0.00,,---,0.00,VWS V14.01,2013-01-02 18:14:00,
2013-01-02 13:15:00,24.8,20.9,30.15,WSW,238,0.0,1.0,85,0.00,,---,0.00,VWS V14.01,2013-01-02 18:15:00,
2013-01-02 13:19:00,24.9,21.0,30.15,SW,228,0.0,1.0,85,0.00,,---,0.00,VWS V14.01,2013-01-02 18:19:00,
2013-01-02 13:20:00,24.9,21.0,30.15,SW,228,0.0,1.0,85,0.00,,---,0.00,VWS V14.01,2013-01-02 18:20:00,
2013-01-02 13:24:00,24.9,21.0,30.15,SW,232,0.0,1.0,85,0.00,,---,0.00,VWS V14.01,2013-01-02 18:24:00,
2013-01-02 13:25:00,24.9,21.0,30.15,WSW,239,1.0,2.0,85,0.00,,---,0.00,VWS V14.01,2013-01-02 18:25:00,
2013-01-02 13:29:00,24.9,21.0,30.15,WNW,300,0.0,3.0,85,0.00,,---,0.00,VWS V14.01,2013-01-02 18:29:00,
2013-01-02 13:30:00,24.9,21.0,30.15,NW,321,0.0,3.0,85,0.00,,---,0.00,VWS V14.01,2013-01-02 18:30:00,
2013-01-02 13:34:00,24.9,21.0,30.14,SW,231,0.0,2.0,85,0.00,,---,0.00,VWS V14.01,2013-01-02 18:34:00,
2013-01-02 13:35:00,24.9,21.0,30.14,SW,231,0.0,2.0,85,0.00,,---,0.00,VWS V14.01,2013-01-02 18:35:00,
2013-01-02 13:39:00,24.9,21.0,30.14,NW,315,1.0,2.0,85,0.00,,---,0.00,VWS V14.01,2013-01-02 18:39:00,
2013-01-02 13:40:00,24.9,21.0,30.14,WNW,297,1.0,2.0,85,0.00,,---,0.00,VWS V14.01,2013-01-02 18:40:00,
2013-01-02 13:44:00,24.9,21.0,30.14,WSW,245,0.0,1.0,85,0.00,,---,0.00,VWS V14.01,2013-01-02 18:44:00,
2013-01-02 13:45:00,25.0,21.1,30.14,WSW,252,0.0,1.0,85,0.00,,---,0.00,VWS V14.01,2013-01-02 18:45:00,
2013-01-02 13:49:00,25.1,21.2,30.14,WSW,252,0.0,0.0,85,0.00,,---,0.00,VWS V14.01,2013-01-02 18:49:00,
2013-01-02 13:50:00,25.1,21.2,30.14,SW,236,1.0,2.0,85,0.00,,---,0.00,VWS V14.01,2013-01-02 18:50:00,
2013-01-02 13:54:00,25.2,21.3,30.14,SW,236,0.0,1.0,85,0.00,,---,0.00,VWS V14.01,2013-01-02 18:54:00,
2013-01-02 13:55:00,25.2,21.3,30.14,SW,225,1.0,2.0,85,0.00,,---,0.00,VWS V14.01,2013-01-02 18:55:00,
2013-01-02 13:59:00,25.2,21.3,30.14,SW,228,0.0,1.0,85,0.00,,---,0.00,VWS V14.01,2013-01-02 18:59:00,
2013-01-02 14:00:00,25.3,21.4,30.14,SW,228,0.0,1.0,85,0.00,,---,0.00,VWS V14.01,2013-01-02 19:00:00,
2013-01-02 14:04:00,25.3,21.4,30.14,SW,228,0.0,1.0,85,0.00,,---,0.00,VWS V14.01,2013-01-02 19:04:00,
2013-01-02 14:05:00,25.4,21.5,30.13,SW,222,0.0,1.0,85,0.00,,---,0.00,VWS V14.01,2013-01-02 19:05:00,
2013-01-02 14:09:00,25.4,21.5,30.13,SW,222,0.0,0.0,85,0.00,,---,0.00,VWS V14.01,2013-01-02 19:09:00,
2013-01-02 14:10:00,25.4,21.5,30.13,SW,222,0.0,0.0,85,0.00,,---,0.00,VWS V14.01,2013-01-02 19:10:00,
2013-01-02 14:14:00,25.4,21.5,30.13,SW,222,0.0,0.0,85,0.00,,---,0.00,VWS V14.01,2013-01-02 19:14:00,
2013-01-02 14:15:00,25.4,21.5,30.13,SW,222,0.0,1.0,85,0.00,,---,0.00,VWS V14.01,2013-01-02 19:15:00,
2013-01-02 14:19:00,25.4,21.5,30.13,WSW,255,0.0,0.0,85,0.00,,---,0.00,VWS V14.01,2013-01-02 19:19:00,
2013-01-02 14:20:00,25.4,21.5,30.13,SW,221,2.0,2.0,85,0.00,,---,0.00,VWS V14.01,2013-01-02 19:20:00,
2013-01-02 14:24:00,25.4,21.5,30.13,SSW,201,0.0,2.0,85,0.00,,---,0.00,VWS V14.01,2013-01-02 19:24:00,
2013-01-02 14:25:00,25.5,21.6,30.13,SW,233,0.0,2.0,85,0.00,,---,0.00,VWS V14.01,2013-01-02 19:25:00,
2013-01-02 14:29:00,25.5,21.6,30.13,WSW,243,4.0,7.0,85,0.00,,---,0.00,VWS V14.01,2013-01-02 19:29:00,
2013-01-02 14:30:00,25.5,21.6,30.13,ESE,103,1.0,7.0,85,0.00,,---,0.00,VWS V14.01,2013-01-02 19:30:00,
2013-01-02 14:34:00,25.5,21.6,30.12,SSW,207,2.0,3.0,85,0.00,,---,0.00,VWS V14.01,2013-01-02 19:34:00,
2013-01-02 14:35:00,25.5,21.6,30.12,SSW,208,0.0,3.0,85,0.00,,---,0.00,VWS V14.01,2013-01-02 19:35:00,
2013-01-02 14:39:00,25.6,21.7,30.12,WSW,253,2.0,3.0,85,0.00,,---,0.00,VWS V14.01,2013-01-02 19:39:00,
2013-01-02 14:40:00,25.6,21.7,30.12,SW,231,0.0,3.0,85,0.00,,---,0.00,VWS V14.01,2013-01-02 19:40:00,
2013-01-02 14:44:00,25.6,21.7,30.12,SW,224,3.0,5.0,85,0.00,,---,0.00,VWS V14.01,2013-01-02 19:44:00,
2013-01-02 14:45:00,25.6,21.5,30.12,SSW,194,2.0,5.0,84,0.00,,---,0.00,VWS V14.01,2013-01-02 19:45:00,
2013-01-02 14:49:00,25.7,21.5,30.13,SW,225,1.0,3.0,84,0.00,,---,0.00,VWS V14.01,2013-01-02 19:49:00,
2013-01-02 14:50:00,25.7,21.5,30.13,SW,228,0.0,3.0,84,0.00,,---,0.00,VWS V14.01,2013-01-02 19:50:00,
2013-01-02 14:54:00,25.7,21.3,30.12,WSW,243,5.0,5.0,83,0.00,,---,0.00,VWS V14.01,2013-01-02 19:54:00,
2013-01-02 14:55:00,25.7,21.3,30.12,SW,235,1.0,5.0,83,0.00,,---,0.00,VWS V14.01,2013-01-02 19:55:00,
2013-01-02 14:59:00,25.7,21.3,30.12,WSW,242,0.0,3.0,83,0.00,,---,0.00,VWS V14.01,2013-01-02 19:59:00,
2013-01-02 15:00:00,25.7,21.3,30.12,South,186,3.0,6.0,83,0.00,,---,0.00,VWS V14.01,2013-01-02 20:00:00,
2013-01-02 15:04:00,25.7,21.0,30.12,WSW,239,3.0,6.0,82,0.00,,---,0.00,VWS V14.01,2013-01-02 20:04:00,
2013-01-02 15:05:00,25.7,21.3,30.13,WSW,238,1.0,6.0,83,0.00,,---,0.00,VWS V14.01,2013-01-02 20:05:00,
2013-01-02 15:09:00,25.7,21.0,30.13,WNW,287,0.0,4.0,82,0.00,,---,0.00,VWS V14.01,2013-01-02 20:09:00,
2013-01-02 15:10:00,25.7,21.3,30.13,SW,215,1.0,4.0,83,0.00,,---,0.00,VWS V14.01,2013-01-02 20:10:00,
2013-01-02 15:15:00,25.8,21.4,30.13,SW,225,1.0,5.0,83,0.00,,---,0.00,VWS V14.01,2013-01-02 20:15:00,
2013-01-02 15:20:00,25.8,21.4,30.13,WSW,248,1.0,4.0,83,0.00,,---,0.00,VWS V14.01,2013-01-02 20:20:00,
2013-01-02 15:25:00,25.8,21.4,30.13,SW,225,1.0,6.0,83,0.00,,---,0.00,VWS V14.01,2013-01-02 20:25:00,
2013-01-02 15:30:00,25.7,21.0,30.13,SW,233,0.0,6.0,83,0.00,,,0.00,weatherlink.com 1.10,2013-01-02 20:30:00,
2013-01-02 15:35:00,25.7,21.3,30.13,WSW,248,0.0,2.0,83,0.00,,---,0.00,VWS V14.01,2013-01-02 20:35:00,
2013-01-02 15:40:00,25.7,21.3,30.13,SSW,202,0.0,2.0,83,0.00,,---,0.00,VWS V14.01,2013-01-02 20:40:00,
2013-01-02 15:43:00,25.8,22.0,30.13,SW,224,1.0,2.0,84,0.00,,,0.00,weatherlink.com 1.10,2013-01-02 20:43:00,
2013-01-02 15:45:00,25.8,21.4,30.13,SW,225,0.0,1.0,83,0.00,,---,0.00,VWS V14.01,2013-01-02 20:45:00,
2013-01-02 15:50:00,25.8,21.6,30.13,WSW,248,0.0,2.0,84,0.00,,---,0.00,VWS V14.01,2013-01-02 20:50:00,
2013-01-02 15:55:00,25.8,21.6,30.14,WSW,248,1.0,3.0,84,0.00,,---,0.00,VWS V14.01,2013-01-02 20:55:00,
2013-01-02 15:58:00,25.7,22.0,30.14,WSW,238,0.0,3.0,84,0.00,,,0.00,weatherlink.com 1.10,2013-01-02 20:58:00,
2013-01-02 16:00:00,25.7,21.5,30.14,SW,225,0.0,2.0,84,0.00,,---,0.00,VWS V14.01,2013-01-02 21:00:00,
2013-01-02 16:05:00,25.7,21.5,30.14,SW,225,1.0,3.0,84,0.00,,---,0.00,VWS V14.01,2013-01-02 21:05:00,
2013-01-02 16:10:00,25.7,21.5,30.14,SW,225,1.0,4.0,84,0.00,,---,0.00,VWS V14.01,2013-01-02 21:10:00,
2013-01-02 16:13:00,25.7,22.0,30.14,SW,234,0.0,4.0,84,0.00,,,0.00,weatherlink.com 1.10,2013-01-02 21:13:00,
2013-01-02 16:15:00,25.7,21.5,30.14,SW,225,0.0,3.0,84,0.00,,---,0.00,VWS V14.01,2013-01-02 21:15:00,
2013-01-02 16:20:00,25.7,21.8,30.14,SW,225,0.0,1.0,85,0.00,,---,0.00,VWS V14.01,2013-01-02 21:20:00,
2013-01-02 16:25:00,25.7,21.8,30.14,SW,225,0.0,1.0,85,0.00,,---,0.00,VWS V14.01,2013-01-02 21:25:00,
2013-01-02 16:29:00,25.6,22.0,30.14,SW,225,0.0,1.0,86,0.00,,,0.00,weatherlink.com 1.10,2013-01-02 21:29:00,
2013-01-02 16:30:00,25.6,22.0,30.14,SW,225,0.0,1.0,86,0.00,,---,0.00,VWS V14.01,2013-01-02 21:30:00,
2013-01-02 16:35:00,25.6,22.0,30.14,SW,225,0.0,1.0,86,0.00,,---,0.00,VWS V14.01,2013-01-02 21:35:00,
2013-01-02 16:38:00,25.7,21.3,30.13,SW,215,0.0,1.0,83,0.00,,---,0.00,VWS V14.01,2013-01-02 21:38:00,
2013-01-02 16:40:00,25.0,22.0,30.15,SSW,209,0.0,1.0,88,0.00,,---,0.00,VWS V14.01,2013-01-02 21:40:00,
2013-01-02 16:43:00,25.6,22.0,30.14,SW,225,0.0,1.0,86,0.00,,---,0.00,VWS V14.01,2013-01-02 21:43:00,
2013-01-02 16:45:00,25.4,22.1,30.15,SW,224,0.0,2.0,87,0.00,,---,0.00,VWS V14.01,2013-01-02 21:45:00,
2013-01-02 16:48:00,25.4,22.4,30.15,SW,222,0.0,1.0,88,0.00,,---,0.00,VWS V14.01,2013-01-02 21:48:00,
2013-01-02 16:50:00,25.4,22.4,30.15,SW,222,0.0,1.0,88,0.00,,---,0.00,VWS V14.01,2013-01-02 21:50:00,
2013-01-02 16:53:00,25.3,22.2,30.15,SW,222,0.0,1.0,88,0.00,,---,0.00,VWS V14.01,2013-01-02 21:53:00,
2013-01-02 16:55:00,25.3,22.2,30.15,SW,222,0.0,1.0,88,0.00,,---,0.00,VWS V14.01,2013-01-02 21:55:00,
2013-01-02 16:58:00,25.3,22.2,30.15,SW,231,0.0,1.0,88,0.00,,---,0.00,VWS V14.01,2013-01-02 21:58:00,
2013-01-02 17:00:00,25.2,22.4,30.15,SW,224,0.0,2.0,89,0.00,,---,0.00,VWS V14.01,2013-01-02 22:00:00,
2013-01-02 17:03:00,25.2,22.4,30.15,SW,218,3.0,3.0,89,0.00,,---,0.00,VWS V14.01,2013-01-02 22:03:00,
2013-01-02 17:05:00,25.2,22.1,30.15,SW,224,0.0,3.0,88,0.00,,---,0.00,VWS V14.01,2013-01-02 22:05:00,
2013-01-02 17:08:00,25.1,22.3,30.15,SW,225,0.0,2.0,89,0.00,,---,0.00,VWS V14.01,2013-01-02 22:08:00,
2013-01-02 17:10:00,25.1,22.3,30.15,SW,225,0.0,2.0,89,0.00,,---,0.00,VWS V14.01,2013-01-02 22:10:00,
2013-01-02 17:15:00,24.8,21.8,30.15,SSW,209,0.0,0.0,88,0.00,,---,0.00,VWS V14.01,2013-01-02 22:15:00,
2013-01-02 17:17:00,25.1,22.0,30.15,SW,221,0.0,1.0,89,0.00,,,0.00,weatherlink.com 1.10,2013-01-02 22:17:00,
2013-01-02 17:20:00,24.8,21.8,30.16,SSW,209,0.0,0.0,88,0.00,,---,0.00,VWS V14.01,2013-01-02 22:20:00,
2013-01-02 17:24:00,25.1,22.3,30.15,SW,225,0.0,1.0,89,0.00,,---,0.00,VWS V14.01,2013-01-02 22:24:00,
2013-01-02 17:25:00,24.9,21.9,30.15,SSW,208,0.0,0.0,88,0.00,,---,0.00,VWS V14.01,2013-01-02 22:25:00,
2013-01-02 17:29:00,25.0,22.0,30.15,SSW,209,0.0,2.0,88,0.00,,---,0.00,VWS V14.01,2013-01-02 22:29:00,
2013-01-02 17:30:00,24.9,21.9,30.16,WSW,242,0.0,0.0,88,0.00,,---,0.00,VWS V14.01,2013-01-02 22:30:00,
2013-01-02 17:34:00,25.0,22.0,30.15,SSW,208,0.0,0.0,88,0.00,,---,0.00,VWS V14.01,2013-01-02 22:34:00,
2013-01-02 17:35:00,24.9,21.9,30.16,WSW,242,0.0,0.0,88,0.00,,---,0.00,VWS V14.01,2013-01-02 22:35:00,
2013-01-02 17:39:00,25.0,22.0,30.15,SSW,209,0.0,1.0,88,0.00,,---,0.00,VWS V14.01,2013-01-02 22:39:00,
2013-01-02 17:40:00,25.0,22.0,30.16,WSW,242,0.0,0.0,88,0.00,,---,0.00,VWS V14.01,2013-01-02 22:40:00,
2013-01-02 17:44:00,25.0,22.0,30.15,SSW,208,0.0,0.0,88,0.00,,---,0.00,VWS V14.01,2013-01-02 22:44:00,
2013-01-02 17:45:00,25.0,22.0,30.16,WSW,242,0.0,0.0,88,0.00,,---,0.00,VWS V14.01,2013-01-02 22:45:00,
2013-01-02 17:49:00,25.0,22.0,30.15,SSW,209,0.0,0.0,88,0.00,,---,0.00,VWS V14.01,2013-01-02 22:49:00,
2013-01-02 17:50:00,25.0,22.0,30.16,WSW,242,0.0,0.0,88,0.00,,---,0.00,VWS V14.01,2013-01-02 22:50:00,
2013-01-02 17:54:00,24.9,21.9,30.15,SSW,209,0.0,0.0,88,0.00,,---,0.00,VWS V14.01,2013-01-02 22:54:00,
2013-01-02 17:55:00,25.0,22.0,30.16,WSW,243,0.0,0.0,88,0.00,,---,0.00,VWS V14.01,2013-01-02 22:55:00,
2013-01-02 17:59:00,24.9,21.9,30.15,SSW,208,0.0,0.0,88,0.00,,---,0.00,VWS V14.01,2013-01-02 22:59:00,
2013-01-02 18:00:00,24.9,21.9,30.16,WSW,242,0.0,0.0,88,0.00,,---,0.00,VWS V14.01,2013-01-02 23:00:00,
2013-01-02 18:04:00,24.9,21.9,30.15,SSW,208,0.0,0.0,88,0.00,,---,0.00,VWS V14.01,2013-01-02 23:04:00,
2013-01-02 18:05:00,24.9,21.9,30.16,WSW,242,0.0,0.0,88,0.00,,---,0.00,VWS V14.01,2013-01-02 23:05:00,
2013-01-02 18:09:00,24.8,21.8,30.15,SSW,209,0.0,0.0,88,0.00,,---,0.00,VWS V14.01,2013-01-02 23:09:00,
2013-01-02 18:10:00,24.9,21.9,30.16,WSW,242,0.0,0.0,88,0.00,,---,0.00,VWS V14.01,2013-01-02 23:10:00,
2013-01-02 18:14:00,24.8,21.8,30.15,SSW,209,0.0,0.0,88,0.00,,---,0.00,VWS V14.01,2013-01-02 23:14:00,
2013-01-02 18:15:00,25.0,22.0,30.16,WSW,242,0.0,0.0,88,0.00,,---,0.00,VWS V14.01,2013-01-02 23:15:00,
2013-01-02 18:19:00,24.8,21.8,30.15,SSW,208,0.0,0.0,88,0.00,,---,0.00,VWS V14.01,2013-01-02 23:19:00,
2013-01-02 18:20:00,25.0,22.0,30.16,SW,233,0.0,1.0,88,0.00,,---,0.00,VWS V14.01,2013-01-02 23:20:00,
2013-01-02 18:24:00,24.8,21.8,30.15,SSW,209,0.0,0.0,88,0.00,,---,0.00,VWS V14.01,2013-01-02 23:24:00,
2013-01-02 18:25:00,25.1,22.0,30.16,SSW,211,0.0,2.0,88,0.00,,---,0.00,VWS V14.01,2013-01-02 23:25:00,
2013-01-02 18:29:00,24.9,21.9,30.16,WSW,242,0.0,0.0,88,0.00,,---,0.00,VWS V14.01,2013-01-02 23:29:00,
2013-01-02 18:30:00,25.1,22.0,30.16,SSW,199,0.0,1.0,88,0.00,,---,0.00,VWS V14.01,2013-01-02 23:30:00,
2013-01-02 18:34:00,24.9,21.9,30.16,WSW,242,0.0,0.0,88,0.00,,---,0.00,VWS V14.01,2013-01-02 23:34:00,
2013-01-02 18:35:00,25.2,22.1,30.16,SW,218,0.0,3.0,88,0.00,,---,0.00,VWS V14.01,2013-01-02 23:35:00,
2013-01-02 18:39:00,24.9,21.9,30.16,WSW,242,0.0,0.0,88,0.00,,---,0.00,VWS V14.01,2013-01-02 23:39:00,
2013-01-02 18:40:00,25.3,22.0,30.16,SSE,153,0.0,2.0,87,0.00,,---,0.00,VWS V14.01,2013-01-02 23:40:00,
2013-01-02 18:44:00,25.0,22.0,30.16,WSW,242,0.0,0.0,88,0.00,,---,0.00,VWS V14.01,2013-01-02 23:44:00,
2013-01-02 18:45:00,25.3,22.0,30.16,SW,224,2.0,4.0,87,0.00,,---,0.00,VWS V14.01,2013-01-02 23:45:00,
2013-01-02 18:49:00,25.0,22.0,30.16,WSW,242,0.0,0.0,88,0.00,,---,0.00,VWS V14.01,2013-01-02 23:49:00,
2013-01-02 18:50:00,25.3,22.0,30.16,SSW,203,2.0,2.0,87,0.00,,---,0.00,VWS V14.01,2013-01-02 23:50:00,
2013-01-02 18:54:00,25.0,22.0,30.16,WSW,242,0.0,0.0,88,0.00,,---,0.00,VWS V14.01,2013-01-02 23:54:00,
2013-01-02 18:55:00,25.2,21.6,30.16,SW,229,2.0,3.0,86,0.00,,---,0.00,VWS V14.01,2013-01-02 23:55:00,
2013-01-02 18:59:00,24.9,21.9,30.16,WSW,242,0.0,0.0,88,0.00,,---,0.00,VWS V14.01,2013-01-02 23:59:00,
2013-01-02 19:00:00,25.1,21.5,30.15,SW,234,0.0,2.0,86,0.00,,---,0.00,VWS V14.01,2013-01-03 00:00:00,
2013-01-02 19:04:00,24.9,21.9,30.16,WSW,242,0.0,0.0,88,0.00,,---,0.00,VWS V14.01,2013-01-03 00:04:00,
2013-01-02 19:05:00,25.1,21.5,30.15,South,182,0.0,1.0,86,0.00,,---,0.00,VWS V14.01,2013-01-03 00:05:00,
2013-01-02 19:09:00,24.9,21.9,30.16,WSW,242,0.0,0.0,88,0.00,,---,0.00,VWS V14.01,2013-01-03 00:09:00,
2013-01-02 19:10:00,25.1,21.5,30.15,South,190,0.0,1.0,86,0.00,,---,0.00,VWS V14.01,2013-01-03 00:10:00,
2013-01-02 19:14:00,25.0,22.0,30.16,WSW,242,0.0,0.0,88,0.00,,---,0.00,VWS V14.01,2013-01-03 00:14:00,
2013-01-02 19:15:00,25.0,21.4,30.15,South,190,0.0,4.0,86,0.00,,---,0.00,VWS V14.01,2013-01-03 00:15:00,
2013-01-02 19:19:00,25.0,22.0,30.16,WSW,242,0.0,0.0,88,0.00,,---,0.00,VWS V14.01,2013-01-03 00:19:00,
2013-01-02 19:20:00,25.0,21.4,30.15,East,96,1.0,3.0,86,0.00,,---,0.00,VWS V14.01,2013-01-03 00:20:00,
2013-01-02 19:24:00,25.0,22.0,30.16,SSW,204,0.0,2.0,88,0.00,,---,0.00,VWS V14.01,2013-01-03 00:24:00,
2013-01-02 19:25:00,25.0,21.4,30.15,SW,229,0.0,2.0,86,0.00,,---,0.00,VWS V14.01,2013-01-03 00:25:00,
2013-01-02 19:29:00,25.1,22.0,30.16,SSW,212,0.0,0.0,88,0.00,,---,0.00,VWS V14.01,2013-01-03 00:29:00,
2013-01-02 19:30:00,24.9,21.3,30.15,South,181,0.0,3.0,86,0.00,,---,0.00,VWS V14.01,2013-01-03 00:30:00,
2013-01-02 19:34:00,25.2,22.1,30.16,SSW,203,0.0,1.0,88,0.00,,---,0.00,VWS V14.01,2013-01-03 00:34:00,
2013-01-02 19:35:00,24.9,21.3,30.14,SE,128,1.0,3.0,86,0.00,,---,0.00,VWS V14.01,2013-01-03 00:35:00,
2013-01-02 19:39:00,25.2,22.1,30.16,SW,225,0.0,2.0,88,0.00,,---,0.00,VWS V14.01,2013-01-03 00:39:00,
2013-01-02 19:40:00,24.9,21.0,30.14,SW,226,0.0,3.0,85,0.00,,---,0.00,VWS V14.01,2013-01-03 00:40:00,
2013-01-02 19:44:00,25.3,22.0,30.16,SW,229,0.0,0.0,87,0.00,,---,0.00,VWS V14.01,2013-01-03 00:44:00,
2013-01-02 19:45:00,24.9,21.0,30.14,SSW,195,0.0,1.0,85,0.00,,---,0.00,VWS V14.01,2013-01-03 00:45:00,
2013-01-02 19:49:00,25.3,22.0,30.16,SW,214,0.0,2.0,87,0.00,,---,0.00,VWS V14.01,2013-01-03 00:49:00,
2013-01-02 19:50:00,24.8,20.9,30.14,SW,222,3.0,3.0,85,0.00,,---,0.00,VWS V14.01,2013-01-03 00:50:00,
2013-01-02 19:54:00,25.2,21.9,30.16,SSW,193,0.0,2.0,87,0.00,,---,0.00,VWS V14.01,2013-01-03 00:54:00,
2013-01-02 19:55:00,24.8,20.9,30.14,SSW,212,2.0,3.0,85,0.00,,---,0.00,VWS V14.01,2013-01-03 00:55:00,
2013-01-02 19:59:00,25.2,21.6,30.15,SW,233,0.0,2.0,86,0.00,,---,0.00,VWS V14.01,2013-01-03 00:59:00,
2013-01-02 20:00:00,24.8,20.9,30.14,SW,219,2.0,2.0,85,0.00,,---,0.00,VWS V14.01,2013-01-03 01:00:00,
2013-01-02 20:04:00,25.1,21.5,30.15,East,89,0.0,0.0,86,0.00,,---,0.00,VWS V14.01,2013-01-03 01:04:00,
2013-01-02 20:05:00,24.8,20.9,30.14,South,188,0.0,6.0,85,0.00,,---,0.00,VWS V14.01,2013-01-03 01:05:00,
2013-01-02 20:09:00,25.1,21.5,30.15,SSW,209,0.0,1.0,86,0.00,,---,0.00,VWS V14.01,2013-01-03 01:09:00,
2013-01-02 20:10:00,24.8,20.9,30.14,SSW,205,0.0,3.0,85,0.00,,---,0.00,VWS V14.01,2013-01-03 01:10:00,
2013-01-02 20:14:00,25.1,21.5,30.15,SSW,208,2.0,4.0,86,0.00,,---,0.00,VWS V14.01,2013-01-03 01:14:00,
2013-01-02 20:15:00,24.7,20.6,30.14,South,181,0.0,2.0,84,0.00,,---,0.00,VWS V14.01,2013-01-03 01:15:00,
2013-01-02 20:19:00,25.0,21.4,30.15,South,190,0.0,0.0,86,0.00,,---,0.00,VWS V14.01,2013-01-03 01:19:00,
2013-01-02 20:20:00,24.7,20.6,30.14,SSW,212,2.0,4.0,84,0.00,,---,0.00,VWS V14.01,2013-01-03 01:20:00,
2013-01-02 20:24:00,25.0,21.4,30.15,SW,214,0.0,2.0,86,0.00,,---,0.00,VWS V14.01,2013-01-03 01:24:00,
2013-01-02 20:25:00,24.7,20.6,30.14,SSW,211,0.0,3.0,84,0.00,,---,0.00,VWS V14.01,2013-01-03 01:25:00,
2013-01-02 20:29:00,25.0,21.4,30.15,WSW,238,1.0,1.0,86,0.00,,---,0.00,VWS V14.01,2013-01-03 01:29:00,
2013-01-02 20:30:00,24.6,20.5,30.14,SSW,197,1.0,7.0,84,0.00,,---,0.00,VWS V14.01,2013-01-03 01:30:00,
2013-01-02 20:34:00,24.9,21.3,30.14,SSE,156,0.0,0.0,86,0.00,,---,0.00,VWS V14.01,2013-01-03 01:34:00,
2013-01-02 20:35:00,24.7,20.6,30.14,SW,217,0.0,1.0,84,0.00,,---,0.00,VWS V14.01,2013-01-03 01:35:00,
2013-01-02 20:39:00,24.9,21.3,30.14,SE,146,0.0,1.0,86,0.00,,---,0.00,VWS V14.01,2013-01-03 01:39:00,
2013-01-02 20:40:00,24.6,20.5,30.14,SE,139,0.0,7.0,84,0.00,,---,0.00,VWS V14.01,2013-01-03 01:40:00,
2013-01-02 20:44:00,24.9,21.0,30.14,SW,219,0.0,1.0,85,0.00,,---,0.00,VWS V14.01,2013-01-03 01:44:00,
2013-01-02 20:45:00,24.6,20.2,30.14,SW,218,2.0,6.0,83,0.00,,---,0.00,VWS V14.01,2013-01-03 01:45:00,
2013-01-02 20:49:00,24.9,21.0,30.14,SW,219,0.0,3.0,85,0.00,,---,0.00,VWS V14.01,2013-01-03 01:49:00,
2013-01-02 20:50:00,24.6,20.2,30.14,WSW,245,0.0,4.0,83,0.00,,---,0.00,VWS V14.01,2013-01-03 01:50:00,
2013-01-02 20:54:00,24.9,21.0,30.14,SW,225,0.0,3.0,85,0.00,,---,0.00,VWS V14.01,2013-01-03 01:54:00,
2013-01-02 20:55:00,24.5,19.8,30.14,SE,143,0.0,6.0,82,0.00,,---,0.00,VWS V14.01,2013-01-03 01:55:00,
2013-01-02 20:59:00,24.8,20.9,30.14,SSW,198,0.0,2.0,85,0.00,,---,0.00,VWS V14.01,2013-01-03 01:59:00,
2013-01-02 21:00:00,24.4,19.4,30.14,SE,131,0.0,4.0,81,0.00,,---,0.00,VWS V14.01,2013-01-03 02:00:00,
2013-01-02 21:04:00,24.8,20.9,30.14,SW,214,1.0,5.0,85,0.00,,---,0.00,VWS V14.01,2013-01-03 02:04:00,
2013-01-02 21:05:00,24.3,18.7,30.14,SW,234,5.0,5.0,79,0.00,,---,0.00,VWS V14.01,2013-01-03 02:05:00,
2013-01-02 21:09:00,24.8,20.9,30.14,SW,235,0.0,2.0,85,0.00,,---,0.00,VWS V14.01,2013-01-03 02:09:00,
2013-01-02 21:10:00,24.2,18.3,30.14,SW,230,0.0,11.0,78,0.00,,---,0.00,VWS V14.01,2013-01-03 02:10:00,
2013-01-02 21:14:00,24.7,20.8,30.14,SW,225,0.0,1.0,85,0.00,,---,0.00,VWS V14.01,2013-01-03 02:14:00,
2013-01-02 21:15:00,24.1,18.5,30.14,SE,141,0.0,3.0,79,0.00,,---,0.00,VWS V14.01,2013-01-03 02:15:00,
2013-01-02 21:19:00,24.7,20.6,30.14,SSW,208,0.0,1.0,84,0.00,,---,0.00,VWS V14.01,2013-01-03 02:19:00,
2013-01-02 21:20:00,24.0,18.4,30.15,SW,228,0.0,2.0,79,0.00,,---,0.00,VWS V14.01,2013-01-03 02:20:00,
2013-01-02 21:24:00,24.7,20.6,30.14,SSW,204,0.0,3.0,84,0.00,,---,0.00,VWS V14.01,2013-01-03 02:24:00,
2013-01-02 21:25:00,23.9,18.4,30.14,SW,219,3.0,3.0,79,0.00,,---,0.00,VWS V14.01,2013-01-03 02:25:00,
2013-01-02 21:29:00,24.7,20.6,30.14,SSW,200,1.0,3.0,84,0.00,,---,0.00,VWS V14.01,2013-01-03 02:29:00,
2013-01-02 21:30:00,23.8,18.0,30.14,SSW,210,1.0,10.0,78,0.00,,---,0.00,VWS V14.01,2013-01-03 02:30:00,
2013-01-02 21:34:00,24.6,20.5,30.14,SSW,208,1.0,1.0,84,0.00,,---,0.00,VWS V14.01,2013-01-03 02:34:00,
2013-01-02 21:35:00,23.5,17.4,30.14,South,169,0.0,10.0,77,0.00,,---,0.00,VWS V14.01,2013-01-03 02:35:00,
2013-01-02 21:39:00,24.7,20.3,30.14,SW,224,0.0,7.0,83,0.00,,---,0.00,VWS V14.01,2013-01-03 02:39:00,
2013-01-02 21:40:00,23.3,17.2,30.14,SW,219,0.0,7.0,77,0.00,,---,0.00,VWS V14.01,2013-01-03 02:40:00,
2013-01-02 21:44:00,24.6,20.5,30.14,SSE,163,0.0,6.0,84,0.00,,---,0.00,VWS V14.01,2013-01-03 02:44:00,
2013-01-02 21:45:00,23.1,16.7,30.14,East,79,0.0,8.0,76,0.00,,---,0.00,VWS V14.01,2013-01-03 02:45:00,
2013-01-02 21:49:00,24.6,20.2,30.14,SSE,166,4.0,4.0,83,0.00,,---,0.00,VWS V14.01,2013-01-03 02:49:00,
2013-01-02 21:50:00,22.9,16.5,30.14,SW,219,2.0,2.0,76,0.00,,---,0.00,VWS V14.01,2013-01-03 02:50:00,
2013-01-02 21:54:00,24.5,20.1,30.14,SW,215,0.0,2.0,83,0.00,,---,0.00,VWS V14.01,2013-01-03 02:54:00,
2013-01-02 21:55:00,22.7,16.0,30.14,South,174,0.0,6.0,75,0.00,,---,0.00,VWS V14.01,2013-01-03 02:55:00,
2013-01-02 21:59:00,24.5,19.5,30.14,SE,145,1.0,4.0,81,0.00,,---,0.00,VWS V14.01,2013-01-03 02:59:00,
2013-01-02 22:00:00,22.4,15.7,30.14,SSW,208,0.0,15.0,75,0.00,,---,0.00,VWS V14.01,2013-01-03 03:00:00,
2013-01-02 22:04:00,24.4,19.1,30.14,SSW,212,0.0,5.0,80,0.00,,---,0.00,VWS V14.01,2013-01-03 03:04:00,
2013-01-02 22:05:00,22.1,15.1,30.14,SSE,149,0.0,11.0,74,0.00,,---,0.00,VWS V14.01,2013-01-03 03:05:00,
2013-01-02 22:09:00,24.2,18.3,30.14,SW,228,3.0,11.0,78,0.00,,---,0.00,VWS V14.01,2013-01-03 03:09:00,
2013-01-02 22:10:00,21.9,14.9,30.14,SW,225,0.0,8.0,74,0.00,,---,0.00,VWS V14.01,2013-01-03 03:10:00,
2013-01-02 22:14:00,24.2,18.3,30.15,SSW,204,1.0,3.0,78,0.00,,---,0.00,VWS V14.01,2013-01-03 03:14:00,
2013-01-02 22:15:00,21.6,14.6,30.14,SSW,209,1.0,6.0,74,0.00,,---,0.00,VWS V14.01,2013-01-03 03:15:00,
2013-01-02 22:19:00,24.0,18.5,30.14,SW,222,1.0,2.0,79,0.00,,---,0.00,VWS V14.01,2013-01-03 03:19:00,
2013-01-02 22:20:00,21.3,14.3,30.14,WSW,242,0.0,4.0,74,0.00,,---,0.00,VWS V14.01,2013-01-03 03:20:00,
2013-01-02 22:24:00,24.0,18.5,30.15,SSW,209,0.0,3.0,79,0.00,,---,0.00,VWS V14.01,2013-01-03 03:24:00,
2013-01-02 22:25:00,21.0,14.0,30.14,SSE,153,0.0,7.0,74,0.00,,---,0.00,VWS V14.01,2013-01-03 03:25:00,
2013-01-02 22:29:00,23.9,18.0,30.14,SW,225,5.0,10.0,78,0.00,,---,0.00,VWS V14.01,2013-01-03 03:29:00,
2013-01-02 22:30:00,20.6,13.6,30.14,SW,215,1.0,4.0,74,0.00,,---,0.00,VWS V14.01,2013-01-03 03:30:00,
2013-01-02 22:35:00,23.6,17.5,30.14,SW,219,0.0,10.0,77,0.00,,---,0.00,VWS V14.01,2013-01-03 03:35:00,
2013-01-02 22:40:00,23.3,17.2,30.14,SW,215,2.0,7.0,77,0.00,,---,0.00,VWS V14.01,2013-01-03 03:40:00,
2013-01-02 22:45:00,23.1,17.0,30.14,South,184,0.0,8.0,77,0.00,,---,0.00,VWS V14.01,2013-01-03 03:45:00,
2013-01-02 22:50:00,22.9,16.5,30.14,SW,231,0.0,1.0,76,0.00,,---,0.00,VWS V14.01,2013-01-03 03:50:00,
2013-01-02 22:55:00,22.8,16.1,30.14,SW,222,0.0,6.0,75,0.00,,---,0.00,VWS V14.01,2013-01-03 03:55:00,
2013-01-02 23:00:00,22.5,15.8,30.14,SSW,208,4.0,15.0,75,0.00,,---,0.00,VWS V14.01,2013-01-03 04:00:00,
2013-01-02 23:05:00,22.3,15.6,30.14,SSW,213,11.0,11.0,75,0.00,,---,0.00,VWS V14.01,2013-01-03 04:05:00,
2013-01-02 23:10:00,21.9,14.9,30.14,SW,222,0.0,8.0,74,0.00,,---,0.00,VWS V14.01,2013-01-03 04:10:00,
2013-01-02 23:15:00,21.7,14.7,30.14,SSW,200,1.0,6.0,74,0.00,,---,0.00,VWS V14.01,2013-01-03 04:15:00,
2013-01-02 23:20:00,21.4,14.4,30.14,SW,219,0.0,4.0,74,0.00,,---,0.00,VWS V14.01,2013-01-03 04:20:00,
2013-01-02 23:25:00,21.1,14.1,30.14,SSE,159,0.0,6.0,74,0.00,,---,0.00,VWS V14.01,2013-01-03 04:25:00,
2013-01-02 23:30:00,20.7,13.7,30.14,South,177,0.0,4.0,74,0.00,,---,0.00,VWS V14.01,2013-01-03 04:30:00,
2013-01-02 23:35:00,20.2,13.2,30.14,SE,136,2.0,4.0,74,0.00,,---,0.00,VWS V14.01,2013-01-03 04:35:00,
2013-01-02 23:40:00,19.9,13.3,30.14,SSW,205,0.0,3.0,75,0.00,,---,0.00,VWS V14.01,2013-01-03 04:40:00,
2013-01-02 23:45:00,19.6,13.3,30.14,WSW,239,3.0,3.0,76,0.00,,---,0.00,VWS V14.01,2013-01-03 04:45:00,
2013-01-02 23:50:00,19.3,13.0,30.14,SSW,211,3.0,3.0,76,0.00,,---,0.00,VWS V14.01,2013-01-03 04:50:00,
2013-01-02 23:55:00,19.0,13.0,30.14,SW,220,0.0,1.0,77,0.00,,---,0.00,VWS V14.01,2013-01-03 04:55:00,